TimeEDT,TemperatureF,Dew PointF,Humidity,Sea Level PressureIn,VisibilityMPH,Wind Direction,Wind SpeedMPH,Gust SpeedMPH,PrecipitationIn,Events,Conditions,WindDirDegrees,DateUTC
12:54 AM,37.9,19.0,47,29.99,10.0,Calm,Calm,-,N/A,,Scattered Clouds,0,2013-03-24 04:54:00
1:54 AM,36.0,19.0,50,29.98,10.0,NNW,3.5,-,N/A,,Scattered Clouds,340,2013-03-24 05:54:00
2:54 AM,34.0,19.0,54,29.97,10.0,NNW,4.6,-,N/A,,Scattered Clouds,340,2013-03-24 06:54:00
3:54 AM,32.0,19.9,61,29.98,10.0,Calm,Calm,-,N/A,,Mostly Cloudy,0,2013-03-24 07:54:00
4:54 AM,30.0,19.0,64,29.99,10.0,Calm,Calm,-,N/A,,Mostly Cloudy,0,2013-03-24 08:54:00
5:54 AM,28.9,19.9,69,29.99,10.0,Calm,Calm,-,N/A,,Overcast,0,2013-03-24 09:54:00
6:54 AM,30.9,19.9,64,29.97,10.0,NW,5.8,-,N/A,,Overcast,320,2013-03-24 10:54:00
7:54 AM,30.0,21.9,72,29.98,10.0,Calm,Calm,-,N/A,,Overcast,0,2013-03-24 11:54:00
8:54 AM,35.1,21.0,57,29.98,10.0,Calm,Calm,-,N/A,,Overcast,0,2013-03-24 12:54:00
9:54 AM,39.0,19.9,46,29.92,10.0,North,11.5,20.7,N/A,,Overcast,10,2013-03-24 13:54:00
10:54 AM,39.9,19.0,43,29.91,10.0,NNE,8.1,-,N/A,,Overcast,30,2013-03-24 14:54:00
11:54 AM,41.0,19.0,41,29.91,10.0,NE,5.8,-,N/A,,Overcast,40,2013-03-24 15:54:00
12:54 PM,41.0,19.0,41,29.85,10.0,ESE,3.5,-,N/A,,Overcast,110,2013-03-24 16:54:00
1:54 PM,41.0,19.9,43,29.81,10.0,ESE,5.8,-,N/A,,Overcast,110,2013-03-24 17:54:00
2:54 PM,41.0,19.9,43,29.76,10.0,ENE,5.8,-,N/A,,Overcast,70,2013-03-24 18:54:00
3:54 PM,41.0,19.9,43,29.73,10.0,NE,3.5,-,N/A,,Overcast,50,2013-03-24 19:54:00
4:54 PM,41.0,19.9,43,29.72,10.0,Calm,Calm,-,N/A,,Overcast,0,2013-03-24 20:54:00
5:54 PM,41.0,21.0,45,29.73,10.0,NE,3.5,-,N/A,,Overcast,40,2013-03-24 21:54:00
6:54 PM,41.0,21.0,45,29.72,10.0,Calm,Calm,-,N/A,,Overcast,0,2013-03-24 22:54:00
7:54 PM,39.0,27.0,62,29.73,10.0,SSE,9.2,-,N/A,,Overcast,160,2013-03-24 23:54:00
8:54 PM,36.0,30.0,79,29.72,10.0,South,8.1,-,N/A,,Overcast,170,2013-03-25 00:54:00
9:25 PM,35.6,30.2,81,29.71,10.0,ESE,4.6,-,0.00,Snow,Light Snow,120,2013-03-25 01:25:00
9:54 PM,35.1,30.9,85,29.68,10.0,East,6.9,-,0.00,,Overcast,90,2013-03-25 01:54:00
10:54 PM,35.1,30.9,85,29.68,9.0,ESE,3.5,-,N/A,,Overcast,120,2013-03-25 02:54:00
11:37 PM,35.6,32.0,87,29.69,9.0,ESE,3.5,-,N/A,,Overcast,120,2013-03-25 03:37:00
11:46 PM,35.6,30.2,81,29.68,10.0,East,4.6,-,N/A,,Overcast,100,2013-03-25 03:46:00
11:54 PM,36.0,30.9,82,29.68,10.0,East,8.1,-,N/A,,Overcast,100,2013-03-25 03:54:00